Location: Newark
(52.3500°N, 175.9667°E)
Time: 21:44:35
(UTC+00:00)

N. Korean satellite - Pass Details

Date: 01 March 2021
Orbit: 452 x 499 km, 97.2° (Epoch: 15 April)

Event Time Altitude Azimuth Distance (km) Brightness Sun altitude
Rises 17:17:09 0° 20° (NNE) 2,514 10.6 -16.6°
Reaches altitude 10° 17:19:20 10° 30° (NNE) 1,640 9.8 -16.3°
Maximum altitude 17:22:34 33° 97° (E) 812 8.4 -15.8°
Drops below altitude 10° 17:25:49 10° 163° (SSE) 1,651 9.4 -15.3°
Sets 17:28:01 0° 173° (S) 2,533 10.2 -15.0°
